EW5954 Weather Reports


Display with metric or nautical units.
time (UTC)temp
F
wind
direction
speed
MPH
gust
MPH
rain 1hr
in
rain 24hr
in
rain mn
in
humidity
%
barometer
mb
20260510015659 54 9 2.0 2.0 0.00 0.12 0.12 84
20260510015156 54 37 2.0 8.0 0.00 0.12 0.12 86
20260510014655 54 358 0.0 2.0 0.00 0.12 0.12 86
20260510014153 54 9 1.0 7.0 0.00 0.12 0.12 86
20260510013648 54 5 0.0 8.0 0.00 0.12 0.12 87
20260510013144 54 33 1.0 1.0 0.00 0.12 0.12 88
20260510012644 53 16 1.0 2.0 0.00 0.12 0.12 88
20260510012140 53 8 0.0 0.0 0.00 0.12 0.12 88
20260510011635 53 3 0.0 2.0 0.00 0.12 0.12 89
20260510011131 53 83 0.0 1.0 0.00 0.12 0.12 89
20260510010627 53 31 0.0 1.0 0.00 0.12 0.12 89
20260510010124 53 7 0.0 0.0 0.00 0.12 0.12 89
20260510005620 53 261 1.0 2.0 0.00 0.12 0.12 89
20260510005117 53 340 0.0 1.0 0.00 0.12 0.12 88
20260510004615 53 128 1.0 2.0 0.00 0.12 0.12 88
20260510004113 53 205 0.0 1.0 0.00 0.12 0.12 88
20260510003610 53 349 0.0 1.0 0.00 0.12 0.12 87
20260510003106 53 32 0.0 1.0 0.00 0.12 0.12 87
20260510002600 54 296 3.0 5.0 0.00 0.12 0.12 87
20260510002058 54 68 1.0 3.0 0.00 0.12 0.12 86
20260510001555 54 289 1.0 2.0 0.00 0.12 0.12 86
20260510001054 54 216 1.0 2.0 0.00 0.12 0.12 85
20260510000548 54 130 1.0 6.0 0.00 0.12 0.12 85
20260510000046 54 187 1.0 3.0 0.00 0.12 0.12 84
20260509235542 54 108 1.0 2.0 0.00 0.12 0.12 84
20260509235039 55 8 2.0 7.0 0.00 0.12 0.12 83
20260509234534 55 69 3.0 5.0 0.00 0.12 0.12 83
20260509234033 55 281 1.0 6.0 0.00 0.12 0.12 82
20260509233530 55 205 1.0 2.0 0.00 0.12 0.12 82
20260509233027 55 101 0.0 3.0 0.00 0.12 0.12 82
20260509232524 55 133 2.0 3.0 0.00 0.12 0.12 82
20260509232020 56 359 0.0 5.0 0.00 0.12 0.12 82
20260509231517 55 5 0.0 5.0 0.00 0.12 0.12 82
20260509231015 55 303 2.0 3.0 0.00 0.12 0.12 82
20260509230511 56 273 4.0 6.0 0.00 0.12 0.12 81
20260509230008 56 26 2.0 7.0 0.00 0.12 0.12 81
20260509225504 57 344 0.0 3.0 0.00 0.12 0.12 80
20260509224959 57 290 3.0 9.0 0.00 0.12 0.12 80
20260509224455 57 164 3.0 7.0 0.00 0.12 0.12 80
20260509223952 57 189 5.0 7.0 0.00 0.12 0.12 81
20260509223449 57 328 3.0 8.0 0.00 0.12 0.12 83
20260509222946 57 231 3.0 9.0 0.00 0.12 0.12 84
20260509222442 57 216 7.0 10.0 0.00 0.12 0.12 85
20260509221938 57 95 4.0 6.0 0.00 0.12 0.12 87
20260509221435 56 241 2.0 10.0 0.00 0.12 0.12 87
20260509220930 55 309 2.0 11.0 0.00 0.12 0.12 86
20260509220426 55 225 7.0 10.0 0.00 0.12 0.12 86
20260509215923 55 320 3.0 7.0 0.00 0.12 0.12 87
20260509215418 54 190 3.0 7.0 0.00 0.12 0.12 88
20260509214916 55 265 2.0 7.0 0.00 0.12 0.12 89
20260509214413 55 256 5.0 7.0 0.05 0.12 0.12 87
20260509213910 54 257 6.0 9.0 0.17 0.12 0.12 84
20260509213405 55 222 5.0 9.0 0.35 0.11 0.11 85
20260509212903 57 40 1.0 7.0 0.31 0.08 0.08 85
20260509212401 58 120 2.0 16.0 0.19 0.04 0.04 79
20260509211856 59 158 5.0 8.0 0.17 0.03 0.03 77
20260509211353 59 54 2.0 5.0 0.05 0.01 0.01 77
20260509210849 60 310 2.0 6.0 0.00 0.00 0.00 75
20260509210347 60 264 0.0 5.0 0.00 0.00 0.00 73
20260509205846 61 171 2.0 6.0 0.00 0.00 0.00 72
20260509205346 62 70 3.0 11.0 0.00 0.00 0.00 68
20260509204843 62 180 5.0 8.0 0.00 0.00 0.00 67
20260509204334 62 70 1.0 10.0 0.00 0.00 0.00 67
20260509203830 62 139 1.0 6.0 0.00 0.00 0.00 66
20260509203327 62 240 2.0 7.0 0.00 0.00 0.00 64
20260509202824 62 136 8.0 13.0 0.00 0.00 0.00 63
20260509202320 63 262 4.0 13.0 0.00 0.00 0.00 63
20260509201819 63 256 4.0 6.0 0.00 0.00 0.00 61
20260509201316 63 182 3.0 9.0 0.00 0.00 0.00 60
20260509200813 64 341 2.0 6.0 0.00 0.00 0.00 61
20260509200308 64 246 2.0 8.0 0.00 0.00 0.00 63
20260509195805 63 229 3.0 14.0 0.00 0.00 0.00 63
20260509195300 63 205 5.0 10.0 0.00 0.00 0.00 62
20260509194759 62 126 4.0 7.0 0.00 0.00 0.00 63
20260509194256 62 277 5.0 10.0 0.00 0.00 0.00 62
20260509193753 63 356 3.0 8.0 0.00 0.00 0.00 62
20260509193252 63 266 3.0 13.0 0.00 0.00 0.00 60
20260509192749 63 279 2.0 6.0 0.00 0.00 0.00 60
20260509192244 63 243 6.0 10.0 0.00 0.00 0.00 60
20260509191740 63 51 3.0 6.0 0.00 0.00 0.00 59
20260509191236 63 151 1.0 8.0 0.00 0.00 0.00 58
20260509190732 64 304 1.0 5.0 0.00 0.00 0.00 58
20260509190230 64 294 7.0 10.0 0.00 0.00 0.00 57
20260509185727 64 199 5.0 10.0 0.00 0.00 0.00 57
20260509185223 64 165 1.0 6.0 0.00 0.00 0.00 56
20260509184721 64 319 6.0 9.0 0.00 0.00 0.00 55
20260509184218 65 6 3.0 3.0 0.00 0.00 0.00 54
20260509183714 66 235 2.0 6.0 0.00 0.00 0.00 54
20260509183209 66 342 2.0 10.0 0.00 0.00 0.00 55
20260509182705 66 231 5.0 9.0 0.00 0.00 0.00 56
20260509182203 66 49 4.0 7.0 0.00 0.00 0.00 56
20260509181700 66 249 1.0 5.0 0.00 0.00 0.00 55
20260509181157 67 195 3.0 8.0 0.00 0.00 0.00 53
20260509180654 67 260 6.0 8.0 0.00 0.00 0.00 53
20260509180150 66 274 3.0 6.0 0.00 0.00 0.00 55
20260509175646 67 268 5.0 9.0 0.00 0.00 0.00 54
20260509175144 65 278 4.0 9.0 0.00 0.00 0.00 56
20260509174639 66 282 5.0 11.0 0.00 0.00 0.00 55
20260509174134 65 267 3.0 6.0 0.00 0.00 0.00 56
20260509173630 66 351 2.0 5.0 0.00 0.00 0.00 56
20260509173126 66 340 2.0 6.0 0.00 0.00 0.00 57
20260509172623 67 173 2.0 6.0 0.00 0.00 0.00 56
20260509172119 66 76 5.0 7.0 0.00 0.00 0.00 57
20260509171615 66 346 1.0 9.0 0.00 0.00 0.00 57
20260509171111 66 189 5.0 10.0 0.00 0.00 0.00 57
20260509170608 65 218 3.0 9.0 0.00 0.00 0.00 58
20260509170104 65 220 2.0 7.0 0.00 0.00 0.00 59
20260509165603 66 329 1.0 3.0 0.00 0.00 0.00 57
20260509165058 65 4 5.0 9.0 0.00 0.00 0.00 60
20260509164554 65 87 2.0 6.0 0.00 0.00 0.00 60
20260509164050 65 311 0.0 6.0 0.00 0.00 0.00 60
20260509163549 66 15 3.0 8.0 0.00 0.00 0.00 60
20260509163043 64 184 6.0 8.0 0.00 0.00 0.00 60
20260509162541 66 172 3.0 5.0 0.00 0.00 0.00 60
20260509162036 65 58 3.0 9.0 0.00 0.00 0.00 62
20260509161533 64 233 4.0 6.0 0.00 0.00 0.00 63
20260509161028 63 257 4.0 6.0 0.00 0.00 0.00 63
20260509160524 64 347 5.0 8.0 0.00 0.00 0.00 63
20260509160020 64 356 2.0 5.0 0.00 0.00 0.00 63
20260509155516 64 237 3.0 6.0 0.00 0.00 0.00 64
20260509155012 63 207 6.0 9.0 0.00 0.00 0.00 65
20260509154509 62 209 2.0 6.0 0.00 0.00 0.00 68
20260509154007 62 276 2.0 7.0 0.00 0.00 0.00 69
20260509153503 61 238 2.0 7.0 0.00 0.00 0.00 70
20260509152959 61 170 3.0 6.0 0.00 0.00 0.00 72
20260509152455 60 283 2.0 7.0 0.00 0.00 0.00 72
20260509151952 59 269 3.0 6.0 0.00 0.00 0.00 73
20260509151449 59 277 0.0 6.0 0.00 0.00 0.00 77
20260509150947 58 0 0.0 2.0 0.00 0.00 0.00 80
20260509150444 57 265 2.0 5.0 0.00 0.00 0.00 81
20260509145942 56 330 0.0 2.0 0.00 0.00 0.00 82
20260509145437 56 244 1.0 2.0 0.00 0.00 0.00 81
20260509144932 56 6 0.0 3.0 0.00 0.00 0.00 81
20260509144430 56 352 0.0 2.0 0.00 0.00 0.00 82
20260509143927 56 267 1.0 3.0 0.00 0.00 0.00 81
20260509143424 55 340 0.0 2.0 0.00 0.00 0.00 82
20260509142920 55 341 0.0 3.0 0.00 0.00 0.00 82
20260509142417 54 273 1.0 5.0 0.00 0.00 0.00 82
20260509141912 54 300 2.0 2.0 0.00 0.00 0.00 82
20260509141410 53 344 1.0 3.0 0.00 0.00 0.00 82
20260509140906 53 241 1.0 2.0 0.00 0.00 0.00 82
20260509140403 53 339 1.0 5.0 0.00 0.00 0.00 82
20260509135901 53 332 0.0 2.0 0.00 0.00 0.00 82
20260509135358 53 254 0.0 3.0 0.00 0.00 0.00 82
20260509134856 52 0 2.0 5.0 0.00 0.00 0.00 81
20260509134353 52 280 2.0 2.0 0.00 0.00 0.00 81
20260509133850 51 333 1.0 2.0 0.00 0.00 0.00 81
20260509133346 51 315 1.0 3.0 0.00 0.00 0.00 80
20260509132845 51 294 0.0 2.0 0.00 0.00 0.00 79
20260509132343 50 324 0.0 0.0 0.00 0.00 0.00 79
20260509131840 50 341 0.0 0.0 0.00 0.00 0.00 79
20260509131336 50 320 1.0 1.0 0.00 0.00 0.00 79
20260509130833 49 320 0.0 0.0 0.00 0.00 0.00 80
20260509130328 48 320 0.0 1.0 0.00 0.00 0.00 80
20260509125825 48 315 0.0 1.0 0.00 0.00 0.00 81
20260509125322 48 242 1.0 1.0 0.00 0.00 0.00 81
20260509124818 47 307 1.0 1.0 0.00 0.00 0.00 81
20260509124315 47 293 0.0 2.0 0.00 0.00 0.00 82
20260509123814 47 192 1.0 2.0 0.00 0.00 0.00 81
20260509123310 46 331 1.0 1.0 0.00 0.00 0.00 81
20260509113904 44 334 0.0 0.0 0.00 0.00 0.00 80
20260509113401 44 334 0.0 0.0 0.00 0.00 0.00 80
20260509112857 44 169 0.0 2.0 0.00 0.00 0.00 80
20260509112354 44 17 0.0 1.0 0.00 0.00 0.00 80
20260509111852 43 336 0.0 2.0 0.00 0.00 0.00 81
20260509111348 43 323 0.0 0.0 0.00 0.00 0.00 81
20260509110846 43 351 0.0 0.0 0.00 0.00 0.00 81
20260509110342 43 323 0.0 1.0 0.00 0.00 0.00 81
20260509105841 43 343 0.0 0.0 0.00 0.00 0.00 81
20260509105338 42 336 0.0 0.0 0.00 0.00 0.00 81
20260509104835 42 358 0.0 0.0 0.00 0.00 0.00 81
20260509104331 42 6 0.0 0.0 0.00 0.00 0.00 82
20260509103829 42 46 0.0 0.0 0.00 0.00 0.00 82
20260509103326 42 2 0.0 0.0 0.00 0.00 0.00 82
20260509102825 42 1 0.0 0.0 0.00 0.00 0.00 81
20260509102322 42 1 0.0 0.0 0.00 0.00 0.00 81
20260509101818 42 353 0.0 0.0 0.00 0.00 0.00 81
20260509101314 42 3 0.0 0.0 0.00 0.00 0.00 81
20260509100812 42 8 0.0 0.0 0.00 0.00 0.00 81
20260509100309 42 353 0.0 0.0 0.00 0.00 0.00 81
20260509095805 42 18 0.0 0.0 0.00 0.00 0.00 81
20260509095305 42 0 0.0 0.0 0.00 0.00 0.00 81
20260509094800 42 8 0.0 0.0 0.00 0.00 0.00 80
20260509094256 42 13 0.0 0.0 0.00 0.00 0.00 80
20260509093754 42 28 0.0 0.0 0.00 0.00 0.00 80
20260509093251 42 355 0.0 0.0 0.00 0.00 0.00 80
20260509092750 43 354 0.0 0.0 0.00 0.00 0.00 80
20260509092247 43 8 0.0 0.0 0.00 0.00 0.00 79
20260509091745 43 346 0.0 0.0 0.00 0.00 0.00 79
20260509091241 43 4 0.0 0.0 0.00 0.00 0.00 78
20260509090739 44 300 0.0 0.0 0.00 0.00 0.00 78
20260509090236 44 350 0.0 1.0 0.00 0.00 0.00 77
20260509085734 44 339 0.0 0.0 0.00 0.00 0.00 76
20260509085231 44 336 0.0 0.0 0.00 0.00 0.00 76
20260509084727 44 341 0.0 0.0 0.00 0.00 0.00 76
20260509084224 44 328 1.0 1.0 0.00 0.00 0.00 76
20260509083722 44 257 1.0 1.0 0.00 0.00 0.00 76
20260509083218 45 351 0.0 0.0 0.00 0.00 0.00 75
20260509082715 45 331 0.0 1.0 0.00 0.00 0.00 73
20260509082212 45 355 0.0 0.0 0.00 0.00 0.00 72
20260509081709 45 334 0.0 0.0 0.00 0.00 0.00 72
20260509081206 45 334 0.0 1.0 0.00 0.00 0.00 72
20260509080704 45 305 0.0 1.0 0.00 0.00 0.00 73
20260509080202 45 298 0.0 0.0 0.00 0.00 0.00 73
20260509075659 45 324 0.0 0.0 0.00 0.00 0.00 73
20260509075157 45 335 0.0 0.0 0.00 0.00 0.00 73
20260509074654 45 330 0.0 0.0 0.00 0.00 0.00 72
20260509074150 45 316 1.0 1.0 0.00 0.00 0.00 71
20260509073647 46 326 0.0 0.0 0.00 0.00 0.00 70
20260509073143 46 333 0.0 0.0 0.00 0.00 0.00 68
20260509072641 47 283 0.0 1.0 0.00 0.00 0.00 65
20260509072137 47 310 1.0 1.0 0.00 0.00 0.00 66
20260509071634 47 322 1.0 1.0 0.00 0.00 0.00 66
20260509071131 47 347 0.0 3.0 0.00 0.00 0.00 67
20260509070628 47 278 2.0 2.0 0.00 0.00 0.00 66
20260509070125 47 327 0.0 1.0 0.00 0.00 0.00 64
20260509065620 47 273 2.0 2.0 0.00 0.00 0.00 64
20260509065116 47 234 0.0 5.0 0.00 0.00 0.00 64
20260509064614 46 331 2.0 3.0 0.00 0.00 0.00 65
20260509064112 46 2 0.0 1.0 0.00 0.00 0.00 69
20260509063608 45 340 0.0 0.0 0.00 0.00 0.00 70
20260509063105 45 325 0.0 0.0 0.00 0.00 0.00 71
20260509062602 46 336 0.0 0.0 0.00 0.00 0.00 69
20260509062059 46 333 0.0 1.0 0.00 0.00 0.00 68
20260509061556 46 235 0.0 2.0 0.00 0.00 0.00 69
20260509061053 46 242 0.0 1.0 0.00 0.00 0.00 69
20260509060551 46 292 1.0 2.0 0.00 0.00 0.00 69
20260509060046 46 256 1.0 2.0 0.00 0.00 0.00 70
20260509055542 46 308 1.0 2.0 0.00 0.00 0.00 70
20260509055038 46 320 1.0 3.0 0.00 0.00 0.00 70
20260509054535 46 329 1.0 2.0 0.00 0.00 0.00 71
20260509054033 46 191 1.0 2.0 0.00 0.00 0.00 71
20260509053532 46 315 1.0 2.0 0.00 0.00 0.00 71
20260509053028 46 309 1.0 2.0 0.00 0.00 0.00 70
20260509052526 46 302 1.0 2.0 0.00 0.00 0.00 70
20260509052023 46 311 1.0 2.0 0.00 0.00 0.00 70
20260509051521 47 332 1.0 1.0 0.00 0.00 0.00 69
20260509051018 47 316 2.0 3.0 0.00 0.00 0.00 69
20260509050515 47 334 1.0 3.0 0.00 0.00 0.00 67
20260509050011 47 188 2.0 5.0 0.00 0.00 0.00 67
20260509045509 47 275 1.0 2.0 0.00 0.00 0.00 66
20260509045006 47 270 3.0 3.0 0.00 0.00 0.00 65
20260509044504 48 278 0.0 1.0 0.00 0.00 0.00 65
20260509044001 48 336 0.0 0.0 0.00 0.00 0.00 64
20260509043456 48 335 0.0 1.0 0.00 0.00 0.00 64
20260509042951 48 301 0.0 1.0 0.00 0.00 0.00 64
20260509042449 48 345 0.0 0.0 0.00 0.00 0.00 63
20260509041945 48 332 0.0 1.0 0.00 0.00 0.00 63
20260509041442 48 345 0.0 2.0 0.00 0.00 0.00 63
20260509040940 48 338 0.0 2.0 0.00 0.00 0.00 62
20260509040438 48 301 0.0 2.0 0.00 0.00 0.00 62
20260509035934 48 329 0.0 1.0 0.00 0.09 0.09 62
20260509035431 49 328 0.0 2.0 0.00 0.09 0.09 61
20260509034927 49 282 1.0 2.0 0.00 0.09 0.09 61
20260509034425 49 334 0.0 2.0 0.00 0.09 0.09 61
20260509033922 49 316 0.0 2.0 0.00 0.09 0.09 60
20260509033419 49 323 1.0 2.0 0.00 0.09 0.09 60
20260509032915 49 349 0.0 1.0 0.00 0.09 0.09 59
20260509032413 50 342 0.0 0.0 0.00 0.09 0.09 58
20260509031911 50 343 0.0 2.0 0.00 0.09 0.09 57
20260509031408 50 330 1.0 2.0 0.00 0.09 0.09 56
20260509030905 50 103 1.0 3.0 0.00 0.09 0.09 56
20260509030404 51 29 0.0 1.0 0.00 0.09 0.09 56
20260509025901 51 319 0.0 2.0 0.00 0.09 0.09 56
20260509025355 51 267 0.0 1.0 0.00 0.09 0.09 56
20260509024851 51 312 2.0 3.0 0.00 0.09 0.09 56
20260509024347 51 336 1.0 1.0 0.00 0.09 0.09 56
20260509023844 51 333 2.0 2.0 0.00 0.09 0.09 56
20260509023341 51 298 2.0 2.0 0.00 0.09 0.09 57
20260509022833 51 226 0.0 2.0 0.00 0.09 0.09 58
20260509022330 51 322 0.0 2.0 0.00 0.09 0.09 58
20260509021827 51 337 0.0 2.0 0.00 0.09 0.09 57
20260509021324 51 336 0.0 2.0 0.00 0.09 0.09 57
20260509020822 51 333 1.0 3.0 0.00 0.09 0.09 57
20260509020320 50 1 1.0 2.0 0.00 0.09 0.09 59
20260509015817 50 270 1.0 5.0 0.00 0.09 0.09 59